Time,TemperatureF,DewpointF,PressureIn,WindDirection,WindDirectionDegrees,WindSpeedMPH,WindSpeedGustMPH,Humidity,HourlyPrecipIn,Conditions,Clouds,dailyrainin,SoftwareType,DateUTC
2013-04-14 00:03:00,36.0,30.0,29.90,West,273,0.0,6.0,79,0.00,,,0.02,,2013-04-14 04:03:00,
2013-04-14 00:13:00,36.0,30.0,29.90,West,273,0.0,6.0,79,0.00,,,0.02,,2013-04-14 04:13:00,
2013-04-14 00:23:00,36.0,30.0,29.90,West,273,0.0,5.0,79,0.00,,,0.02,,2013-04-14 04:23:00,
2013-04-14 00:33:00,35.0,29.0,29.90,SW,221,0.0,4.0,80,0.00,,,0.02,,2013-04-14 04:33:00,
2013-04-14 00:43:00,35.0,29.0,29.90,SW,221,0.0,4.0,80,0.00,,,0.02,,2013-04-14 04:43:00,
2013-04-14 00:52:00,35.0,30.0,29.90,SW,220,0.0,1.0,81,0.00,,,0.02,,2013-04-14 04:52:00,
2013-04-14 01:03:00,34.0,29.0,29.90,SW,224,0.0,0.0,82,0.00,,,0.02,,2013-04-14 05:03:00,
2013-04-14 01:12:00,34.0,29.0,29.90,SW,224,0.0,0.0,82,0.00,,,0.02,,2013-04-14 05:12:00,
2013-04-14 01:22:00,34.0,29.0,29.91,WNW,292,0.0,3.0,82,0.00,,,0.02,,2013-04-14 05:22:00,
2013-04-14 01:32:00,34.0,29.0,29.91,WNW,292,0.0,0.0,82,0.00,,,0.02,,2013-04-14 05:32:00,
2013-04-14 01:42:00,34.0,29.0,29.91,WNW,292,0.0,0.0,82,0.00,,,0.02,,2013-04-14 05:42:00,
2013-04-14 01:52:00,34.0,29.0,29.91,WNW,291,0.0,0.0,83,0.00,,,0.02,,2013-04-14 05:52:00,
2013-04-14 02:02:00,33.0,29.0,29.91,WNW,291,0.0,0.0,84,0.00,,,0.02,,2013-04-14 06:02:00,
2013-04-14 02:12:00,33.0,29.0,29.91,WNW,291,0.0,0.0,84,0.00,,,0.02,,2013-04-14 06:12:00,
2013-04-14 02:22:00,32.0,28.0,29.91,SSW,196,0.0,0.0,86,0.00,,,0.02,,2013-04-14 06:22:00,
2013-04-14 02:32:00,31.0,27.0,29.91,SSW,196,0.0,0.0,86,0.00,,,0.02,,2013-04-14 06:32:00,
2013-04-14 02:42:00,31.0,27.0,29.91,SSW,196,0.0,0.0,86,0.00,,,0.02,,2013-04-14 06:42:00,
2013-04-14 02:53:00,31.0,28.0,29.92,SSW,196,0.0,0.0,87,0.00,,,0.02,,2013-04-14 06:53:00,
2013-04-14 03:02:00,30.0,27.0,29.92,SSW,196,0.0,0.0,88,0.00,,,0.02,,2013-04-14 07:02:00,
2013-04-14 03:12:00,30.0,27.0,29.92,SSW,196,0.0,0.0,88,0.00,,,0.02,,2013-04-14 07:12:00,
2013-04-14 03:22:00,29.0,26.0,29.92,SSW,196,0.0,0.0,89,0.00,,,0.02,,2013-04-14 07:22:00,
2013-04-14 03:32:00,29.0,26.0,29.92,SSW,196,0.0,0.0,90,0.00,,,0.02,,2013-04-14 07:32:00,
2013-04-14 03:42:00,29.0,26.0,29.92,SSW,196,0.0,0.0,90,0.00,,,0.02,,2013-04-14 07:42:00,
2013-04-14 03:52:00,30.0,27.0,29.92,SSW,196,0.0,0.0,90,0.00,,,0.02,,2013-04-14 07:52:00,
2013-04-14 04:02:00,30.0,27.0,29.92,SSW,196,0.0,0.0,90,0.00,,,0.02,,2013-04-14 08:02:00,
2013-04-14 04:12:00,30.0,27.0,29.92,SSW,196,0.0,0.0,90,0.00,,,0.02,,2013-04-14 08:12:00,
2013-04-14 04:22:00,30.0,28.0,29.93,SSW,196,0.0,0.0,91,0.00,,,0.02,,2013-04-14 08:22:00,
2013-04-14 04:32:00,31.0,29.0,29.93,SSW,196,0.0,0.0,91,0.00,,,0.02,,2013-04-14 08:32:00,
2013-04-14 04:43:00,31.0,29.0,29.93,SSW,196,0.0,0.0,91,0.00,,,0.02,,2013-04-14 08:43:00,
2013-04-14 04:52:00,32.0,29.0,29.93,WSW,242,0.0,0.0,90,0.00,,,0.02,,2013-04-14 08:52:00,
2013-04-14 05:03:00,31.0,28.0,29.94,WSW,242,0.0,0.0,90,0.00,,,0.02,,2013-04-14 09:03:00,
2013-04-14 05:12:00,31.0,28.0,29.94,WSW,242,0.0,0.0,90,0.00,,,0.02,,2013-04-14 09:12:00,
2013-04-14 05:22:00,31.0,28.0,29.94,WSW,242,0.0,0.0,90,0.00,,,0.02,,2013-04-14 09:22:00,
2013-04-14 05:33:00,31.0,28.0,29.94,WSW,242,0.0,0.0,90,0.00,,,0.02,,2013-04-14 09:33:00,
2013-04-14 05:43:00,31.0,28.0,29.94,WSW,242,0.0,0.0,90,0.00,,,0.02,,2013-04-14 09:43:00,
2013-04-14 05:54:00,30.0,27.0,29.95,WSW,242,0.0,0.0,90,0.00,,,0.02,,2013-04-14 09:54:00,
2013-04-14 06:03:00,30.0,28.0,29.95,WSW,242,0.0,0.0,91,0.00,,,0.02,,2013-04-14 10:03:00,
2013-04-14 06:13:00,30.0,28.0,29.95,WSW,242,0.0,0.0,91,0.00,,,0.02,,2013-04-14 10:13:00,
2013-04-14 06:23:00,29.0,27.0,29.95,WSW,242,0.0,0.0,91,0.00,,,0.02,,2013-04-14 10:23:00,
2013-04-14 06:33:00,29.0,27.0,29.95,WSW,242,0.0,0.0,91,0.00,,,0.02,,2013-04-14 10:33:00,
2013-04-14 06:42:00,29.0,27.0,29.95,WSW,242,0.0,0.0,91,0.00,,,0.02,,2013-04-14 10:42:00,
2013-04-14 06:52:00,29.0,27.0,29.96,WSW,242,0.0,0.0,91,0.00,,,0.01,,2013-04-14 10:52:00,
2013-04-14 07:03:00,29.0,27.0,29.96,WSW,242,0.0,0.0,91,0.00,,,0.01,,2013-04-14 11:03:00,
2013-04-14 07:13:00,29.0,27.0,29.96,WSW,242,0.0,0.0,91,0.00,,,0.01,,2013-04-14 11:13:00,
2013-04-14 07:23:00,29.0,27.0,29.97,WSW,242,0.0,0.0,92,0.00,,,0.01,,2013-04-14 11:23:00,
2013-04-14 07:32:00,29.0,27.0,29.98,WSW,242,0.0,0.0,93,0.00,,,0.01,,2013-04-14 11:32:00,
2013-04-14 07:42:00,29.0,27.0,29.98,WSW,242,0.0,0.0,93,0.00,,,0.01,,2013-04-14 11:42:00,
2013-04-14 07:52:00,30.0,28.0,29.98,WSW,242,0.0,0.0,93,0.00,,,0.01,,2013-04-14 11:52:00,
2013-04-14 08:02:00,30.0,28.0,29.99,WSW,254,0.0,0.0,93,0.00,,,0.01,,2013-04-14 12:02:00,
2013-04-14 08:12:00,30.0,28.0,29.99,WSW,254,0.0,0.0,93,0.00,,,0.01,,2013-04-14 12:12:00,
2013-04-14 08:22:00,30.0,28.0,30.00,West,279,0.0,0.0,93,0.00,,,0.01,,2013-04-14 12:22:00,
2013-04-14 08:32:00,32.0,30.0,30.00,SSW,207,0.0,2.0,93,0.00,,,0.01,,2013-04-14 12:32:00,
2013-04-14 08:42:00,32.0,30.0,30.00,SSW,207,0.0,2.0,93,0.00,,,0.01,,2013-04-14 12:42:00,
2013-04-14 08:52:00,34.0,31.0,30.01,SW,223,0.0,2.0,90,0.00,,,0.01,,2013-04-14 12:52:00,
2013-04-14 09:02:00,35.0,32.0,30.01,SSW,210,2.0,3.0,88,0.00,,,0.01,,2013-04-14 13:02:00,
2013-04-14 09:12:00,35.0,32.0,30.01,SSW,210,2.0,3.0,88,0.00,,,0.01,,2013-04-14 13:12:00,
2013-04-14 09:22:00,36.0,32.0,30.00,WSW,244,0.0,3.0,84,0.00,,,0.01,,2013-04-14 13:22:00,
2013-04-14 09:33:00,37.0,32.0,30.00,WSW,246,0.0,4.0,82,0.00,,,0.01,,2013-04-14 13:33:00,
2013-04-14 09:42:00,37.0,32.0,30.00,WSW,246,0.0,4.0,82,0.00,,,0.01,,2013-04-14 13:42:00,
2013-04-14 09:52:00,37.0,32.0,30.00,NW,307,0.0,0.0,82,0.00,,,0.01,,2013-04-14 13:52:00,
2013-04-14 10:02:00,39.0,33.0,29.98,North,355,0.0,1.0,78,0.00,,,0.01,,2013-04-14 14:02:00,
2013-04-14 10:12:00,39.0,33.0,29.98,North,355,0.0,1.0,78,0.00,,,0.01,,2013-04-14 14:12:00,
2013-04-14 10:22:00,41.0,34.0,29.99,NE,36,0.0,0.0,75,0.00,,,0.01,,2013-04-14 14:22:00,
2013-04-14 10:32:00,42.0,34.0,29.98,NE,43,0.0,1.0,73,0.00,,,0.01,,2013-04-14 14:32:00,
2013-04-14 10:42:00,42.0,34.0,29.98,NE,43,0.0,1.0,73,0.00,,,0.01,,2013-04-14 14:42:00,
2013-04-14 10:53:00,43.0,34.0,29.98,ENE,67,0.0,1.0,70,0.00,,,0.01,,2013-04-14 14:53:00,
2013-04-14 11:02:00,43.0,33.0,29.96,NNE,31,0.0,2.0,68,0.00,,,0.01,,2013-04-14 15:02:00,
2013-04-14 11:12:00,43.0,33.0,29.96,NNE,31,0.0,2.0,68,0.00,,,0.01,,2013-04-14 15:12:00,
2013-04-14 11:22:00,43.0,31.0,29.96,NE,36,3.0,3.0,62,0.00,,,0.01,,2013-04-14 15:22:00,
2013-04-14 11:33:00,43.0,31.0,29.96,NE,36,3.0,3.0,62,0.00,,,0.01,,2013-04-14 15:33:00,
2013-04-14 11:43:00,43.0,31.0,29.96,NE,36,3.0,3.0,62,0.00,,,0.01,,2013-04-14 15:43:00,
2013-04-14 11:53:00,43.0,30.0,29.99,SSE,155,3.0,5.0,61,0.00,,,0.01,,2013-04-14 15:53:00,
2013-04-14 12:04:00,43.0,31.0,30.00,SE,146,0.0,4.0,63,0.00,,,0.01,,2013-04-14 16:04:00,
2013-04-14 12:13:00,43.0,31.0,30.00,SE,146,0.0,4.0,63,0.00,,,0.01,,2013-04-14 16:13:00,
2013-04-14 12:23:00,43.0,32.0,30.01,SE,138,0.0,5.0,65,0.00,,,0.01,,2013-04-14 16:23:00,
2013-04-14 12:33:00,43.0,29.0,30.02,SSE,149,0.0,4.0,58,0.00,,,0.01,,2013-04-14 16:33:00,
2013-04-14 12:43:00,43.0,29.0,30.02,SSE,149,0.0,4.0,58,0.00,,,0.01,,2013-04-14 16:43:00,
2013-04-14 12:53:00,42.0,30.0,30.02,ENE,61,0.0,4.0,61,0.00,,,0.01,,2013-04-14 16:53:00,
2013-04-14 13:02:00,42.0,30.0,30.02,ENE,61,0.0,4.0,61,0.00,,,0.01,,2013-04-14 17:02:00,
2013-04-14 13:13:00,42.0,30.0,30.02,ENE,61,0.0,4.0,61,0.00,,,0.01,,2013-04-14 17:13:00,
2013-04-14 13:22:00,42.0,31.0,30.03,SSW,194,0.0,9.0,66,0.00,,,0.01,,2013-04-14 17:22:00,
2013-04-14 13:33:00,42.0,31.0,30.03,SSE,162,0.0,6.0,66,0.00,,,0.01,,2013-04-14 17:33:00,
2013-04-14 13:42:00,42.0,31.0,30.03,SSE,162,0.0,6.0,66,0.00,,,0.01,,2013-04-14 17:42:00,
2013-04-14 13:53:00,42.0,32.0,30.03,South,176,0.0,5.0,67,0.00,,,0.01,,2013-04-14 17:53:00,
2013-04-14 14:02:00,42.0,32.0,30.02,SSE,165,2.0,6.0,68,0.00,,,0.01,,2013-04-14 18:02:00,
2013-04-14 14:12:00,42.0,32.0,30.02,SSE,165,2.0,6.0,68,0.00,,,0.01,,2013-04-14 18:12:00,
2013-04-14 14:22:00,42.0,33.0,30.01,SW,228,0.0,4.0,71,0.00,,,0.01,,2013-04-14 18:22:00,
2013-04-14 14:33:00,42.0,34.0,30.01,SSW,213,0.0,4.0,73,0.00,,,0.01,,2013-04-14 18:33:00,
2013-04-14 14:43:00,42.0,34.0,30.01,SSW,213,0.0,4.0,73,0.00,,,0.01,,2013-04-14 18:43:00,
2013-04-14 14:54:00,42.0,34.0,30.00,South,173,0.0,5.0,72,0.00,,,0.01,,2013-04-14 18:54:00,
2013-04-14 15:03:00,43.0,34.0,30.00,SE,132,0.0,4.0,71,0.00,,,0.01,,2013-04-14 19:03:00,
2013-04-14 15:12:00,43.0,34.0,30.00,SE,132,0.0,4.0,71,0.00,,,0.01,,2013-04-14 19:12:00,
2013-04-14 15:22:00,44.0,35.0,29.96,ESE,108,0.0,5.0,70,0.00,,,0.01,,2013-04-14 19:22:00,
2013-04-14 15:32:00,44.0,33.0,29.97,ESE,114,0.0,6.0,65,0.01,,,0.02,,2013-04-14 19:32:00,
2013-04-14 15:43:00,44.0,33.0,29.97,ESE,114,0.0,6.0,65,0.01,,,0.02,,2013-04-14 19:43:00,
2013-04-14 15:52:00,44.0,33.0,29.97,ESE,114,0.0,6.0,65,0.01,,,0.02,,2013-04-14 19:52:00,
2013-04-14 16:03:00,42.0,32.0,29.97,East,92,0.0,2.0,68,0.01,,,0.01,,2013-04-14 20:03:00,
2013-04-14 16:13:00,42.0,32.0,29.97,East,92,0.0,2.0,68,0.01,,,0.01,,2013-04-14 20:13:00,
2013-04-14 16:22:00,44.0,33.0,29.97,SSE,155,0.0,7.0,65,0.01,,,0.01,,2013-04-14 20:22:00,
2013-04-14 16:33:00,44.0,33.0,29.97,ESE,111,0.0,5.0,65,0.00,,,0.01,,2013-04-14 20:33:00,
2013-04-14 16:43:00,44.0,33.0,29.97,ESE,111,0.0,5.0,65,0.00,,,0.01,,2013-04-14 20:43:00,
2013-04-14 16:52:00,46.0,35.0,29.97,ESE,109,4.0,8.0,66,0.00,,,0.01,,2013-04-14 20:52:00,
2013-04-14 17:02:00,47.0,36.0,29.96,SE,128,5.0,6.0,65,0.00,,,0.01,,2013-04-14 21:02:00,
2013-04-14 17:12:00,47.0,36.0,29.96,SE,128,5.0,6.0,65,0.00,,,0.01,,2013-04-14 21:12:00,
2013-04-14 17:23:00,45.0,33.0,29.95,East,101,0.0,5.0,63,0.00,,,0.01,,2013-04-14 21:23:00,
2013-04-14 17:33:00,46.0,35.0,29.94,ESE,103,0.0,6.0,64,0.00,,,0.01,,2013-04-14 21:33:00,
2013-04-14 17:43:00,46.0,35.0,29.94,ESE,103,0.0,6.0,64,0.00,,,0.01,,2013-04-14 21:43:00,
2013-04-14 17:53:00,46.0,35.0,29.94,SE,146,0.0,7.0,65,0.00,,,0.01,,2013-04-14 21:53:00,
2013-04-14 18:03:00,45.0,34.0,29.93,ENE,57,0.0,9.0,65,0.00,,,0.01,,2013-04-14 22:03:00,
2013-04-14 18:13:00,45.0,34.0,29.93,ENE,57,0.0,9.0,65,0.00,,,0.01,,2013-04-14 22:13:00,
2013-04-14 18:23:00,46.0,35.0,29.93,ENE,75,0.0,5.0,65,0.00,,,0.01,,2013-04-14 22:23:00,
2013-04-14 18:33:00,46.0,35.0,29.93,NNE,26,0.0,6.0,65,0.00,,,0.01,,2013-04-14 22:33:00,
2013-04-14 18:44:00,46.0,35.0,29.93,NNE,26,0.0,6.0,65,0.00,,,0.01,,2013-04-14 22:44:00,
2013-04-14 18:52:00,46.0,35.0,29.93,NE,43,0.0,4.0,65,0.00,,,0.01,,2013-04-14 22:52:00,
2013-04-14 19:02:00,46.0,36.0,29.92,East,94,0.0,2.0,68,0.00,,,0.01,,2013-04-14 23:02:00,
2013-04-14 19:12:00,46.0,36.0,29.92,East,94,0.0,2.0,68,0.00,,,0.01,,2013-04-14 23:12:00,
2013-04-14 19:23:00,44.0,35.0,29.93,ENE,63,0.0,5.0,70,0.00,,,0.01,,2013-04-14 23:23:00,
2013-04-14 19:33:00,43.0,35.0,29.93,ENE,61,0.0,5.0,72,0.00,,,0.01,,2013-04-14 23:33:00,
2013-04-14 19:43:00,43.0,35.0,29.93,ENE,61,0.0,5.0,72,0.00,,,0.01,,2013-04-14 23:43:00,
2013-04-14 19:53:00,42.0,34.0,29.93,ENE,74,0.0,6.0,73,0.00,,,0.01,,2013-04-14 23:53:00,
2013-04-14 20:02:00,42.0,34.0,29.93,East,84,0.0,2.0,73,0.00,,,0.01,,2013-04-15 00:02:00,
2013-04-14 20:12:00,42.0,34.0,29.93,East,84,0.0,2.0,73,0.00,,,0.01,,2013-04-15 00:12:00,
2013-04-14 20:23:00,42.0,35.0,29.93,NE,55,0.0,2.0,75,0.00,,,0.01,,2013-04-15 00:23:00,
2013-04-14 20:33:00,41.0,34.0,29.92,NE,36,0.0,4.0,77,0.00,,,0.01,,2013-04-15 00:33:00,
2013-04-14 20:42:00,41.0,35.0,29.92,NE,43,0.0,1.0,79,0.00,,,0.01,,2013-04-15 00:42:00,
2013-04-14 20:52:00,41.0,35.0,29.92,NE,43,0.0,1.0,79,0.00,,,0.01,,2013-04-15 00:52:00,
2013-04-14 21:02:00,40.0,34.0,29.92,NE,42,2.0,3.0,80,0.00,,,0.01,,2013-04-15 01:02:00,
2013-04-14 21:12:00,40.0,34.0,29.92,NE,42,2.0,3.0,80,0.00,,,0.01,,2013-04-15 01:12:00,
2013-04-14 21:23:00,40.0,35.0,29.92,East,87,0.0,2.0,82,0.00,,,0.01,,2013-04-15 01:23:00,
2013-04-14 21:32:00,40.0,35.0,29.92,ENE,62,0.0,4.0,82,0.00,,,0.01,,2013-04-15 01:32:00,
2013-04-14 21:42:00,40.0,35.0,29.92,ENE,62,0.0,4.0,82,0.00,,,0.01,,2013-04-15 01:42:00,
2013-04-14 21:52:00,41.0,35.0,29.91,ENE,74,0.0,4.0,80,0.00,,,0.01,,2013-04-15 01:52:00,
2013-04-14 22:03:00,42.0,35.0,29.91,ESE,104,1.0,3.0,76,0.00,,,0.01,,2013-04-15 02:03:00,
2013-04-14 22:12:00,42.0,35.0,29.91,ESE,104,1.0,3.0,76,0.00,,,0.01,,2013-04-15 02:12:00,
2013-04-14 22:22:00,42.0,34.0,29.91,East,93,3.0,5.0,74,0.00,,,0.01,,2013-04-15 02:22:00,
2013-04-14 22:32:00,42.0,35.0,29.91,ENE,63,0.0,4.0,75,0.00,,,0.01,,2013-04-15 02:32:00,
2013-04-14 22:42:00,42.0,35.0,29.91,ENE,63,0.0,4.0,75,0.00,,,0.01,,2013-04-15 02:42:00,
2013-04-14 22:53:00,41.0,35.0,29.91,ENE,76,2.0,6.0,79,0.00,,,0.01,,2013-04-15 02:53:00,
2013-04-14 23:03:00,41.0,35.0,29.91,East,82,0.0,6.0,80,0.00,,,0.01,,2013-04-15 03:03:00,
2013-04-14 23:12:00,41.0,35.0,29.91,East,82,0.0,6.0,80,0.00,,,0.01,,2013-04-15 03:12:00,
2013-04-14 23:22:00,40.0,35.0,29.90,ENE,67,2.0,5.0,82,0.00,,,0.01,,2013-04-15 03:22:00,
2013-04-14 23:33:00,39.0,34.0,29.89,East,96,0.0,5.0,82,0.00,,,0.01,,2013-04-15 03:33:00,
2013-04-14 23:43:00,39.0,34.0,29.89,East,96,0.0,5.0,82,0.00,,,0.01,,2013-04-15 03:43:00,
2013-04-14 23:54:00,39.0,34.0,29.88,NE,46,2.0,10.0,82,0.00,,,0.01,,2013-04-15 03:54:00,